Voltar ao catálogo

COSMOS 1054

AtivoMilitarLEO
NORAD 11131·PAYLOAD·🇷🇺 Russia

Lançado Dec 5, 1978 de Plesetsk Cosmodrome

Loading…

Próximas Passagens (próximas 24 horas)

TLE

AtualizadoSource: Space-Track

Época: Sep 14, 2026, 09:54 UTC

1 11131U 78109D   26257.41268721 -.00000026  00000-0 -63290-4 0  9999
2 11131  74.0148 223.5017 0028013 246.9895 284.7704 12.49314152178875

Acompanhe COSMOS 1054 em tempo real com AllMySat

Download on the App Store